Skip Page Navigation
NASA JPL Caltech
NASA Logo - Jet Propulsion Laboratory + View the NASA Portal
+ Center for Near-Earth Object Studies
JPL Home Earth Solar System Stars & Galaxies Technology
JPL Solar System Dynamics
BODIES ORBITS EPHEMERIDES TOOLS PHYSICAL DATA DISCOVERY FAQ SITE MAP
IMPORTANT: The SSD Announcement email list is now available. Major changes are coming in the near future, including possible hostname and/or URL changes. To be notified of such changes, subscribe to this email list.

Please visit this page for more details.


JPL Small-Body Database Browser
Search: [ help ]  
233235 (2005 YT58)
Classification: Main-belt Asteroid          SPK-ID: 2233235
Ephemeris | Orbit Diagram | Orbital Elements | Mission Design | Physical Parameters | Discovery Circumstances | Close-Approach Data ]

[ show orbit diagram ]
Orbital Elements at Epoch 2458600.5 (2019-Apr-27.0) TDB
Reference: JPL 13 (heliocentric ecliptic J2000)
 Element Value Uncertainty (1-sigma)   Units 
e .1002466273614653 5.5965e-08  
a 2.729083847908287 2.9864e-08 au
q 2.455502396368832 1.5746e-07 au
i 4.021552375390871 6.0362e-06 deg
node 301.2935670268032 8.1413e-05 deg
peri 215.2744020653327 8.8416e-05 deg
M 299.3437144363583 3.9727e-05 deg
tp 2458877.957875403654
(2020-Jan-29.45787540)
0.00018482 TDB
period 1646.735111079537
4.51
2.703e-05
7.4e-08
d
yr
n .2186143949794072 3.5884e-09 deg/d
Q 3.002665299447743 3.2857e-08 au
  Orbit Determination Parameters
   # obs. used (total)      238  
   data-arc span      6149 days (16.84 yr)  
   first obs. used      2002-02-11  
   last obs. used      2018-12-13  
   planetary ephem.      DE431  
   SB-pert. ephem.      SB431-N16  
   condition code      0  
   norm. resid. RMS      .59048  
   source      ORB  
   producer      Otto Matic  
   solution date      2019-Jul-14 06:17:50  

Additional Information
 Earth MOID = 1.46702 au 
 Jupiter MOID = 2.00055 au 
 T_jup = 3.344 
[ show covariance matrix ]

Ephemeris | Orbit Diagram | Orbital Elements | Mission Design | Physical Parameters | Discovery Circumstances | Close-Approach Data ]

Physical Parameter Table
Parameter Symbol Value Units Sigma Reference Notes
absolute magnitude H 16.3   n/a MPO321194  

233235 (2005 YT58)          Discovered 2005-Dec-25 by Spacewatch at Kitt Peak
Reference: 20100228/Numbers.arcLast Updated: 2010-03-03

[ show close-approach data ]
Alternate Designations
 2005 YT58 = 2002 EN62 
Ephemeris | Orbit Diagram | Orbital Elements | Mission Design | Physical Parameters | Discovery Circumstances | Close-Approach Data ]
ABOUT SSD CREDITS/AWARDS PRIVACY/COPYRIGHT GLOSSARY LINKS
FirstGov 2019-Dec-16 02:41 UT
(server date/time)  
NASA Home Page
Site Manager:   Ryan S. Park
Webmaster  Alan B. Chamberlin